www.pogodaiklimat.ru
Время
и дата
07:07 30.12
07:53 30.12
08:38 30.12
08:53 30.12
09:53 30.12
10:53 30.12
11:53 30.12
12:53 30.12
13:53 30.12
14:53 30.12
15:53 30.12
16:53 30.12
17:21 30.12
17:53 30.12
18:36 30.12
18:53 30.12
19:29 30.12
19:53 30.12
20:53 30.12
21:53 30.12
22:53 30.12
23:53 30.12
00:53 31.12
01:00 31.12
01:53 31.12
02:53 31.12
03:53 31.12
04:53 31.12
05:53 31.12
06:53 31.12
07:41 31.12
07:46 31.12
07:50 31.12
07:53 31.12
08:12 31.12
08:53 31.12
09:18 31.12
09:26 31.12
09:35 31.12
09:53 31.12
10:53 31.12
11:53 31.12
12:53 31.12
13:00 31.12
13:28 31.12
13:53 31.12
14:00 31.12
14:53 31.12
Ветер
(напр.,м/с)
Видим. Явления Облачность Т
(С)
Тd
(С)
f
(%)
Тe
(С)
Тes
(С)
Комфортность P
(гПа)
Po
(гПа)
Тmin
(С)
Tmax
(С)
R
(мм)
R24
(мм)
S
(см)
штиль 0 16 км 5/5 660 м +3.9 +2.8 93 +3 +3 998.3
штиль 0 16 км 8/8 720 м +3.3 +2.8 97 +2 +2 1013.6 999.0
штиль 0 16 км 5/5 780 м +4.4 +2.8 89 +3 +4 999.0
штиль 0 16 км 5/5 720 м +5.0 +2.8 86 +4 +4 1013.8 999.3
В 1 16 км ясно +7.8 +3.3 73 +5 +7 1014.5 1000.0 +3.3 +7.8
В 1 16 км ясно +8.9 +3.9 71 +7 +11 1013.5 999.0
нст 1 16 км ясно +10.0 +4.4 68 +9 +14 1012.1 997.6
штиль 0 16 км ясно +11.1 +5.0 66 +11 +18 1011.7 997.3
штиль 0 16 км 2/2 900 м +11.7 +5.6 66 +11 +17 1011.1 996.6
штиль 0 16 км ясно +12.2 +5.6 64 +12 +17 1010.9 996.6
В 1 16 км 5/5 900 м
[Ac]
+11.1 +6.1 71 +10 +11 1011.3 997.0 +7.8 +12.8
СВ 1 16 км 8/8 990 м +9.4 +5.6 77 +8 +8 1011.1 996.6
штиль 0 16 км 10/10 810 м +9.4 +5.6 77 +9 +9 996.6
З 1 16 км 10/10 810 м +10.0 +5.6 74 +9 +9 1011.5 997.0
З 1 16 км 10/10 900 м +8.9 +5.6 80 +6 +6 997.3
штиль 0 16 км 10/10 900 м +8.9 +5.6 80 +8 +8 1011.6 997.0
ЮЗ 1 16 км 10/10 870 м +8.9 +5.0 77 +7 +7 997.3
штиль 0 16 км 10/10 840 м +8.3 +5.6 83 +8 +8 1011.5 997.0
З 1 16 км 10/10 810 м +6.7 +4.4 85 +4 +4 1012.0 997.6
З 1 16 км 10/10 690 м +7.8 +5.0 82 +6 +6 1012.0 997.6 +6.7 +11.1
штиль 0 16 км 10/10 660 м +7.2 +5.0 86 +6 +6 1011.6 997.3
З 1 16 км 10/10 690 м +7.8 +5.0 82 +6 +6 1011.8 997.3
З 1 16 км 8/8 870 м +6.1 +4.4 89 +4 +4 1011.8 997.3
З 1 16 км 2/2 870 м +5.6 +3.9 89 +3 +3 997.3
штиль 0 16 км ясно +5.0 +3.9 93 +4 +4 1011.9 997.6
штиль 0 16 км ясно +4.4 +3.3 93 +3 +3 1011.9 997.6
штиль 0 16 км ясно +3.3 +2.8 97 +2 +2 1011.4 997.0 +3.3 +7.8
штиль 0 16 км ясно +3.3 +2.8 97 +2 +2 1010.7 996.3
В 1 16 км ясно +2.2 +1.7 96 -1 -1 1010.9 996.3
штиль 0 16 км ясно +1.1 +1.1 100 0 0 1011.4 997.0
штиль 0 16 км 5/5 60 м +2.2 +1.1 92 +1 +1 997.3
штиль 0 2 км дымка ?/? +2.2 +1.7 96 +1 +1 997.3
ЮВ 1 400 м туман ?/? +2.0 +2.0 100 -2 -2 997.3
штиль 0 400 м туман ?/? +2.2 +2.2 100 +1 +1 1011.8 997.3
штиль 0 0 м туман ?/? +2.2 +2.2 100 +1 +1 997.6
штиль 0 0 м туман ?/? +2.2 +2.2 100 +1 +1 1012.7 998.0
штиль 0 400 м туман ?/? +2.8 +2.8 100 +1 +1 998.0
штиль 0 8 км дымка 5/5 60 м +3.3 +3.3 100 +2 +3 998.0
штиль 0 8 км дымка 5/5 60 м +3.9 +3.9 100 +3 +4 998.3
штиль 0 16 км 5/5 600 м +3.9 +3.3 96 +3 +4 1013.0 998.3 +0.6 +4.4
штиль 0 16 км ясно +6.7 +3.9 82 +6 +10 1012.9 998.3
штиль 0 16 км 2/2 630 м +8.9 +3.9 71 +8 +14 1012.1 997.6
З 2 16 км 8/8 840 м +10.6 +4.4 65 +8 +9 1011.5 997.0
СЗ 1 16 км 5/5 840 м +10.6 +4.4 65 +9 +11 997.0
СЗ 1 16 км 8/8 870 м +10.6 +3.9 63 +9 +10 997.0
СЗ 1 16 км 8/8 870 м +11.1 +3.9 61 +9 +10 1011.2 997.0
З 1 16 км 5/5 990 м +11.1 +3.3 59 +10 +11 997.0
СЗ 2 16 км 5/5 990 м +11.1 +2.8 57 +9 +10 1011.6 997.3
Местоположение метеостанции Livermore Municipal Airport: широта 37.6928 долгота -121.8144 высота над уровнем моря 121 м.
В архиве по умолчанию представлена погода в Ливерморе за последние 1-2 суток. Обновление информации о фактической погоде в базе происходит ежечасно! Архивные данные за месяц целиком и за предыдущие месяцы Вы можете получить, выбрав интересующий диапазон дат из раскрывающегося списка и нажав кнопку "Ввод!".
Внимание! Архив погоды МЕТАР в базе сайта по станциям, не включенным в климатический монитор, хранится не более 60 дней. Нет смысла пытаться выбрать более раннюю дату.
*Определитесь, кто Вы:
Внимание! Время в таблицах - местное (без учета летнего времени). Для получения всемирного времени необходимо вычесть поправку, которая равна -8 ч.
Смотрите также архив погоды в соседних городах и на ближайших метеорологических станциях:
Партнеры нашего сайта:      
Пояснения к столбцам:
  • Ветер - указаны скорость ветра в м/с - средняя за 10 мин, порывы в срок и между сроками (в фигурных скобках) и направление, откуда дует ветер: С - северный,
  • СВ - северо-восточный, В - восточный, ЮВ - юго-восточный, Ю - южный, ЮЗ - юго-западный, З - западный, СЗ - северо-западный.
  • Видимость - горизонтальная дальность видимости в метрах или километрах. При видимости от 1 до 10 км при отсутствии осадков обычно наблюдается дымка, при ухудшении видимости до 1 км и менее - туман. В сухую погоду видимость может ухудшаться дымом, пылью или мглою.
  • Явления - указаны атмосферные явления, наблюдавшиеся в срок или в последний час перед сроком; фигурными скобками обозначены явления, наблюдавшиеся между сроками (за 1-3 часа до срока); квадратными скобками обозначены град или гололедные отложения с указанием их диаметра в мм.
  • Облачность - указаны через наклонную черту общая и нижняя облачность в баллах и высота нижней границы облаков в метрах; квадратными скобками обозначены формы облаков: Ci - перистые, Cs - перисто-слоистые, Cc - перисто-кучевые, Ac - высококучевые, As - высокослоистые, Sc - слоисто-кучевые, Ns - слоисто-дождевые, Cu - кучевые, Cb - кучево-дождевые. Подробнее классификацию облаков см. в Атласе облаков (PDF).
  • T - Температура воздуха - температура, измеренная на высоте 2 м над землей.
  • Td - Температура точки росы - температура, при понижении до которой содержащийся в воздухе водяной пар достигнет насыщения.
  • f - Относительная влажность воздуха - влажноcть воздуха, измеренная на высоте 2 м над землей.
  • Te - Эффективная температура - температура, которую ощущает одетый по сезону человек в тени. Характеристика душности погоды. При расчете учитывается влияние влажности воздуха и скорости ветра на теплоощущения человека.
  • Tes - Эффективная температура на солнце - температура, которую ощущает человек, с поправкой на солнечный нагрев. Характеристика знойности погоды. Зависит от высоты солнца над горизонтом, облачности и скорости ветра. Ночью, в пасмурную погоду, а также при ветре 12 м/с и более поправка равна нулю.
  • P - Атмосферное давление - приведенное к уровню моря атмосферное давление.
  • Po - Атмосферное давление - измеренное на уровне метеостанции атмосферное давление.
  • Tmin - Минимальная температура - минимум температуры воздуха на высоте 2 м над землей.
  • Tmax - Максимальная температура - максимум температуры воздуха на высоте 2 м над землей.
  • R - Количество осадков - Количество выпавших осадков за период времени, мм. При наведении курсора мыши на число - период времени, за который выпало указанное количество осадков.
  • R24 - Количество осадков - Количество выпавших осадков за 24 часа, мм.
  • S - Снежный покров - Высота снежного покрова, см. При наведении курсора мыши на число - состояние снежного покрова и степень покрытия местности в баллах.